Miscellaneous Local Product
Issued by NWS North Platte, NE

Home | Current Version | Previous Version | Text Only | Print | Product List | Glossary On
Versions: 1 2 3 4 5 6 7 8 9 10 11 12 13 14 15 16 17 18 19 20 21 22 23 24 25 26 27 28 29 30 31 32 33 34 35 36 37 38 39 40 41 42 43 44 45 46 47 48 49 50
000
AXUS43 KLBF 250110
MISLBF


WESTERN AND NORTH CENTRAL NEBRASKA HOURLY WEATHER ROUNDUP
NATIONAL WEATHER SERVICE NORTH PLATTE NE
800 PM CDT SUN JUL 24 2016

NOTE: "FAIR" INDICATES FEW OR NO CLOUDS BELOW 12,000 FEET WITH NO
SIGNIFICANT WEATHER AND/OR OBSTRUCTIONS TO VISIBILITY.

NOTE: STATIONS NOT REPORTING VARIABLES SUCH AS SKY/WEATHER OR
PRESSURE ARE PROVIDED BY RAWS AND APRS NETWORKS AND ARE NOT UNDER
NATIONAL WEATHER SERVICE QUALITY CONTROL.

...OBSERVATIONS IN AND NEAR THE EASTERN PANHANDLE OF NEBRASKA...

CITY           SKY/WX    TMP DP  RH WIND       PRES   REMARKS
PINE RIDGE     SUNNY     84  49  29 E13G21    30.09S
CHADRON        SUNNY     83  49  30 S15       30.07R
ALLIANCE       SUNNY     78  52  40 SE18G25   30.12S
SIDNEY         CLOUDY    71  56  58 S23G33    30.13R
CRESCENT LAKE    N/A     77  55  45 E9G16       N/A
$$

...OBSERVATIONS IN NORTHERN NEBRASKA AND FAR SOUTHERN SOUTH DAKOTA...

CITY           SKY/WX    TMP DP  RH WIND       PRES   REMARKS
WINNER         FAIR      85  49  28 NE7       30.07S
VALENTINE      PTSUNNY   85  47  26 SE8       30.09R
THEDFORD       MOSUNNY   81  56  42 SE7       30.12R
AINSWORTH      MOSUNNY   81  62  52 E6        30.10R
O`NEILL        CLEAR     79  59  50 CALM      30.08R
ORD            CLEAR     80  62  54 E5        30.07R
BROKEN BOW     SUNNY     76  63  64 SE7       30.10R
VALENTINE NWR    N/A     82  58  44 E6          N/A
BUTTE            N/A     79  60  52 NE3         N/A
HALSEY           N/A     81  53  37 E6          N/A
EWING            N/A     76  64  67 CALM        N/A
$$

...OBSERVATIONS IN SOUTHWEST NEBRASKA AND FAR NORTHEAST COLORADO...

CITY           SKY/WX    TMP DP  RH WIND       PRES   REMARKS
HOLYOKE        CLOUDY    79  61  53 W22       30.20R
IMPERIAL       CLOUDY    79  58  48 NE7       30.16R
OGALLALA       CLOUDY    78  58  51 SE12      30.11F
NORTH PLATTE   SUNNY     75  65  70 E7        30.11R
MCCOOK         SUNNY     81  59  47 E16       30.07R
LEXINGTON      MOSUNNY   79  63  57 NE7       30.09R
STAPLETON        N/A     75  63  66 CALM        N/A
GOTHENBURG       N/A     81  59  46 E6          N/A
CALLAWAY         N/A     81  64  56 E5          N/A
$$

...OBSERVATIONS IN CENTRAL LINCOLN COUNTY AREA...

CITY           SKY/WX    TMP DP  RH WIND       PRES   REMARKS
N.P. AIRPORT   SUNNY     75  65  70 E7        30.11R
N.P. DOWNTOWN    N/A     79  63  57 E3          N/A
N.P. SOUTHEAST   N/A     78  64  62 CALM        N/A
N.P. HILLCREST   N/A     77  62  60 E9          N/A
$$

...SOME OBSERVATIONS FROM AROUND THE REGION...

CITY           SKY/WX    TMP DP  RH WIND       PRES   REMARKS
DENVER         CLOUDY    76  52  43 E18G29    30.17R
LARAMIE        SUNNY     81  28  14 N8        30.26S
CHEYENNE       CLOUDY    71  57  61 SE17G24   30.22R
SCOTTSBLUFF    CLOUDY    80  53  39 E17G23    30.10S
RAPID CITY     SUNNY     83  49  30 SE13      30.07F
BISMARCK       SUNNY     80  56  43 NE8       30.01F
PIERRE         SUNNY     85  48  27 N5        30.03S
SIOUX FALLS    PTCLDY    77  63  61 W3        30.04R
OMAHA          CLOUDY    83  67  58 E6        30.00F
GRAND ISLAND   CLEAR     79  64  60 NE8       30.07R
KANSAS CITY    CLOUDY    82  69  64 N20       29.96S
WICHITA        MOCLDY    96  68  39 SE13      29.89S HX 101
OKLAHOMA CITY  PTCLDY    94  68  42 S7        29.91S HX  98
DALLAS         PTCLDY    95  69  42 SE7       29.88R HX 100
AMARILLO       CLEAR     93  56  28 SE21      30.01R HX  91
DODGE CITY     CLEAR     91  60  35 SE7       29.96R HX  90
HAYS           CLEAR     84  63  48 E22       29.98R
GOODLAND       CLOUDY    84  61  45 E15G23    30.09R
$$




USA.gov is the U.S. government's official web portal to all federal, state and local government web resources and services.